Time,TemperatureF,DewpointF,PressureIn,WindDirection,WindDirectionDegrees,WindSpeedMPH,WindSpeedGustMPH,Humidity,HourlyPrecipIn,Conditions,Clouds,dailyrainin,SoftwareType,DateUTC
2013-09-24 00:05:00,54.9,47.8,29.97,ENE,67,0.0,-999.0,77,-99.99,,,0.00,Acu-Link.com,2013-09-24 04:05:00,
2013-09-24 00:20:00,55.2,48.1,29.97,ESE,112,1.1,-999.0,77,-99.99,,,0.00,Acu-Link.com,2013-09-24 04:20:00,
2013-09-24 00:36:00,55.2,48.1,29.97,ESE,112,1.1,-999.0,77,-99.99,,,0.00,Acu-Link.com,2013-09-24 04:36:00,
2013-09-24 00:51:00,54.9,47.8,29.97,ESE,112,1.1,-999.0,77,-99.99,,,0.00,Acu-Link.com,2013-09-24 04:51:00,
2013-09-24 01:06:00,54.5,47.8,29.96,East,90,1.7,-999.0,78,-99.99,,,0.00,Acu-Link.com,2013-09-24 05:06:00,
2013-09-24 01:21:00,54.1,47.4,29.96,ESE,112,1.1,-999.0,78,-99.99,,,0.00,Acu-Link.com,2013-09-24 05:21:00,
2013-09-24 01:36:00,53.6,47.2,29.96,ESE,112,1.7,-999.0,79,-99.99,,,0.00,Acu-Link.com,2013-09-24 05:36:00,
2013-09-24 01:51:00,53.2,46.9,29.97,ESE,112,0.0,-999.0,79,-99.99,,,0.00,Acu-Link.com,2013-09-24 05:51:00,
2013-09-24 02:06:00,52.3,46.3,29.97,East,90,0.0,-999.0,80,-99.99,,,0.00,Acu-Link.com,2013-09-24 06:06:00,
2013-09-24 02:21:00,51.6,46.3,29.97,ESE,112,0.0,-999.0,82,-99.99,,,0.00,Acu-Link.com,2013-09-24 06:21:00,
2013-09-24 02:36:00,51.1,45.8,29.98,East,90,0.0,-999.0,82,-99.99,,,0.00,Acu-Link.com,2013-09-24 06:36:00,
2013-09-24 02:52:00,51.1,45.8,29.98,ESE,112,0.0,-999.0,82,-99.99,,,0.00,Acu-Link.com,2013-09-24 06:52:00,
2013-09-24 03:07:00,50.5,45.2,29.98,SE,135,0.0,-999.0,82,-99.99,,,0.00,Acu-Link.com,2013-09-24 07:07:00,
2013-09-24 03:22:00,50.5,45.5,29.98,East,90,0.0,-999.0,83,-99.99,,,0.00,Acu-Link.com,2013-09-24 07:22:00,
2013-09-24 03:37:00,50.7,45.7,29.98,ESE,112,0.0,-999.0,83,-99.99,,,0.00,Acu-Link.com,2013-09-24 07:37:00,
2013-09-24 03:52:00,50.4,45.4,29.98,ESE,112,1.7,-999.0,83,-99.99,,,0.00,Acu-Link.com,2013-09-24 07:52:00,
2013-09-24 04:07:00,50.4,45.4,29.99,ENE,67,1.1,-999.0,83,-99.99,,,0.00,Acu-Link.com,2013-09-24 08:07:00,
2013-09-24 04:22:00,50.4,45.4,29.98,East,90,1.1,-999.0,83,-99.99,,,0.00,Acu-Link.com,2013-09-24 08:22:00,
2013-09-24 04:37:00,50.2,45.2,29.98,ESE,112,1.7,-999.0,83,-99.99,,,0.00,Acu-Link.com,2013-09-24 08:37:00,
2013-09-24 04:53:00,50.0,45.4,29.98,South,180,0.0,-999.0,84,-99.99,,,0.00,Acu-Link.com,2013-09-24 08:53:00,
2013-09-24 05:08:00,49.8,45.2,29.99,ESE,112,2.2,-999.0,84,-99.99,,,0.00,Acu-Link.com,2013-09-24 09:08:00,
2013-09-24 05:23:00,49.6,45.3,29.98,ESE,112,1.7,-999.0,85,-99.99,,,0.00,Acu-Link.com,2013-09-24 09:23:00,
2013-09-24 05:38:00,48.9,44.9,29.99,SE,135,1.1,-999.0,86,-99.99,,,0.00,Acu-Link.com,2013-09-24 09:38:00,
2013-09-24 05:53:00,48.6,44.9,30.00,ESE,112,1.7,-999.0,87,-99.99,,,0.00,Acu-Link.com,2013-09-24 09:53:00,
2013-09-24 06:09:00,48.6,44.9,30.00,ENE,67,2.2,-999.0,87,-99.99,,,0.00,Acu-Link.com,2013-09-24 10:09:00,
2013-09-24 06:24:00,48.6,44.9,30.00,East,90,2.2,-999.0,87,-99.99,,,0.00,Acu-Link.com,2013-09-24 10:24:00,
2013-09-24 06:39:00,48.6,44.9,30.00,ESE,112,2.7,-999.0,87,-99.99,,,0.00,Acu-Link.com,2013-09-24 10:39:00,
2013-09-24 06:54:00,48.6,44.9,30.00,East,90,3.2,-999.0,87,-99.99,,,0.00,Acu-Link.com,2013-09-24 10:54:00,
2013-09-24 07:09:00,48.6,44.9,30.01,ESE,112,3.2,-999.0,87,-99.99,,,0.00,Acu-Link.com,2013-09-24 11:09:00,
2013-09-24 07:24:00,48.2,44.5,30.00,East,90,3.2,-999.0,87,-99.99,,,0.00,Acu-Link.com,2013-09-24 11:24:00,
2013-09-24 07:39:00,48.2,44.5,30.01,East,90,3.2,-999.0,87,-99.99,,,0.00,Acu-Link.com,2013-09-24 11:39:00,
2013-09-24 07:54:00,48.0,44.3,30.01,East,90,3.2,-999.0,87,-99.99,,,0.00,Acu-Link.com,2013-09-24 11:54:00,
2013-09-24 08:09:00,48.7,45.0,30.01,East,90,1.7,-999.0,87,-99.99,,,0.00,Acu-Link.com,2013-09-24 12:09:00,
2013-09-24 08:25:00,49.6,45.6,30.01,ENE,67,2.7,-999.0,86,-99.99,,,0.00,Acu-Link.com,2013-09-24 12:25:00,
2013-09-24 08:40:00,50.4,46.1,30.00,East,90,3.2,-999.0,85,-99.99,,,0.00,Acu-Link.com,2013-09-24 12:40:00,
2013-09-24 08:55:00,51.8,46.8,29.99,ESE,112,2.7,-999.0,83,-99.99,,,0.00,Acu-Link.com,2013-09-24 12:55:00,
2013-09-24 09:10:00,52.9,47.2,30.00,ESE,112,3.2,-999.0,81,-99.99,,,0.00,Acu-Link.com,2013-09-24 13:10:00,
2013-09-24 09:25:00,55.0,48.3,29.99,East,90,2.7,-999.0,78,-99.99,,,0.00,Acu-Link.com,2013-09-24 13:25:00,
2013-09-24 09:40:00,56.5,49.0,29.99,East,90,2.2,-999.0,76,-99.99,,,0.00,Acu-Link.com,2013-09-24 13:40:00,
2013-09-24 09:55:00,57.4,50.2,29.99,SE,135,2.2,-999.0,77,-99.99,,,0.00,Acu-Link.com,2013-09-24 13:55:00,
2013-09-24 10:10:00,58.3,50.8,29.98,North,0,2.7,-999.0,76,-99.99,,,0.00,Acu-Link.com,2013-09-24 14:10:00,
2013-09-24 10:25:00,61.5,52.0,29.98,East,90,4.2,-999.0,71,-99.99,,,0.00,Acu-Link.com,2013-09-24 14:25:00,
2013-09-24 10:41:00,63.0,52.7,29.98,SSE,157,3.2,-999.0,69,-99.99,,,0.00,Acu-Link.com,2013-09-24 14:41:00,
2013-09-24 10:56:00,64.4,53.2,29.98,ESE,112,6.3,-999.0,67,-99.99,,,0.00,Acu-Link.com,2013-09-24 14:56:00,
2013-09-24 11:11:00,66.2,53.7,29.96,ENE,67,5.8,-999.0,64,-99.99,,,0.00,Acu-Link.com,2013-09-24 15:11:00,
2013-09-24 11:26:00,67.3,54.7,29.95,SSE,157,3.7,-999.0,64,-99.99,,,0.00,Acu-Link.com,2013-09-24 15:26:00,
2013-09-24 11:41:00,69.3,55.7,29.94,SSE,157,3.2,-999.0,62,-99.99,,,0.00,Acu-Link.com,2013-09-24 15:41:00,
2013-09-24 11:56:00,70.3,55.7,29.93,ESE,112,3.7,-999.0,60,-99.99,,,0.00,Acu-Link.com,2013-09-24 15:56:00,
2013-09-24 12:11:00,71.6,56.5,29.92,SE,135,1.7,-999.0,59,-99.99,,,0.00,Acu-Link.com,2013-09-24 16:11:00,
2013-09-24 12:26:00,72.1,56.5,29.91,SSE,157,3.7,-999.0,58,-99.99,,,0.00,Acu-Link.com,2013-09-24 16:26:00,
2013-09-24 12:41:00,73.8,57.1,29.91,ESE,112,3.7,-999.0,56,-99.99,,,0.00,Acu-Link.com,2013-09-24 16:41:00,
2013-09-24 12:57:00,74.8,58.0,29.90,East,90,4.2,-999.0,56,-99.99,,,0.00,Acu-Link.com,2013-09-24 16:57:00,
2013-09-24 13:12:00,76.6,59.2,29.90,ESE,112,3.2,-999.0,55,-99.99,,,0.00,Acu-Link.com,2013-09-24 17:12:00,
2013-09-24 13:27:00,76.3,58.9,29.90,NE,45,4.2,-999.0,55,-99.99,,,0.00,Acu-Link.com,2013-09-24 17:27:00,
2013-09-24 13:42:00,77.0,59.6,29.89,ESE,112,3.7,-999.0,55,-99.99,,,0.00,Acu-Link.com,2013-09-24 17:42:00,
2013-09-24 13:57:00,78.1,59.6,29.89,South,180,2.2,-999.0,53,-99.99,,,0.00,Acu-Link.com,2013-09-24 17:57:00,
2013-09-24 14:12:00,78.8,59.7,29.88,WSW,247,3.7,-999.0,52,-99.99,,,0.00,Acu-Link.com,2013-09-24 18:12:00,
2013-09-24 14:27:00,78.4,60.4,29.88,ESE,112,1.1,-999.0,54,-99.99,,,0.00,Acu-Link.com,2013-09-24 18:27:00,
2013-09-24 14:42:00,80.6,59.6,29.87,ESE,112,3.7,-999.0,49,-99.99,,,0.00,Acu-Link.com,2013-09-24 18:42:00,
2013-09-24 14:57:00,79.7,60.5,29.86,SSE,157,2.7,-999.0,52,-99.99,,,0.00,Acu-Link.com,2013-09-24 18:57:00,
2013-09-24 15:13:00,79.9,59.6,29.86,SSW,202,3.2,-999.0,50,-99.99,,,0.00,Acu-Link.com,2013-09-24 19:13:00,
2013-09-24 15:28:00,80.1,60.3,29.84,ESE,112,4.2,-999.0,51,-99.99,,,0.00,Acu-Link.com,2013-09-24 19:28:00,
2013-09-24 15:43:00,81.0,60.0,29.83,West,270,2.7,-999.0,49,-99.99,,,0.00,Acu-Link.com,2013-09-24 19:43:00,
2013-09-24 15:58:00,82.0,60.3,29.83,ESE,112,2.2,-999.0,48,-99.99,,,0.00,Acu-Link.com,2013-09-24 19:58:00,
2013-09-24 16:13:00,81.7,60.1,29.82,SSE,157,1.7,-999.0,48,-99.99,,,0.00,Acu-Link.com,2013-09-24 20:13:00,
2013-09-24 16:28:00,81.5,61.0,29.82,ESE,112,2.2,-999.0,50,-99.99,,,0.00,Acu-Link.com,2013-09-24 20:28:00,
2013-09-24 16:43:00,81.0,58.8,29.82,SSW,202,1.7,-999.0,47,-99.99,,,0.00,Acu-Link.com,2013-09-24 20:43:00,
2013-09-24 16:59:00,80.8,59.8,29.82,SE,135,1.7,-999.0,49,-99.99,,,0.00,Acu-Link.com,2013-09-24 20:59:00,
2013-09-24 17:14:00,81.3,60.3,29.81,NE,45,1.7,-999.0,49,-99.99,,,0.00,Acu-Link.com,2013-09-24 21:14:00,
2013-09-24 17:29:00,80.4,60.0,29.82,SE,135,1.1,-999.0,50,-99.99,,,0.00,Acu-Link.com,2013-09-24 21:29:00,
2013-09-24 17:44:00,79.3,61.2,29.81,SSW,202,0.0,-999.0,54,-99.99,,,0.00,Acu-Link.com,2013-09-24 21:44:00,
2013-09-24 17:59:00,77.4,58.4,29.81,SSW,202,2.7,-999.0,52,-99.99,,,0.00,Acu-Link.com,2013-09-24 21:59:00,
2013-09-24 18:14:00,75.9,58.6,29.81,SW,225,0.0,-999.0,55,-99.99,,,0.00,Acu-Link.com,2013-09-24 22:14:00,
2013-09-24 18:29:00,77.7,59.2,29.81,SSE,157,1.1,-999.0,53,-99.99,,,0.00,Acu-Link.com,2013-09-24 22:29:00,
2013-09-24 18:44:00,75.2,58.4,29.81,SE,135,1.7,-999.0,56,-99.99,,,0.00,Acu-Link.com,2013-09-24 22:44:00,
2013-09-24 18:59:00,73.0,58.3,29.81,SSW,202,0.0,-999.0,60,-99.99,,,0.00,Acu-Link.com,2013-09-24 22:59:00,
2013-09-24 19:15:00,72.7,58.5,29.80,ENE,67,0.0,-999.0,61,-99.99,,,0.00,Acu-Link.com,2013-09-24 23:15:00,
2013-09-24 19:30:00,70.2,58.7,29.80,NE,45,0.0,-999.0,67,-99.99,,,0.00,Acu-Link.com,2013-09-24 23:30:00,
2013-09-24 19:45:00,68.4,58.6,29.80,East,90,0.0,-999.0,71,-99.99,,,0.00,Acu-Link.com,2013-09-24 23:45:00,
2013-09-24 20:00:00,66.7,58.5,29.80,ENE,67,0.0,-999.0,75,-99.99,,,0.00,Acu-Link.com,2013-09-25 00:00:00,
2013-09-24 20:15:00,65.5,57.4,29.80,ENE,67,0.0,-999.0,75,-99.99,,,0.00,Acu-Link.com,2013-09-25 00:15:00,
2013-09-24 20:30:00,64.8,57.8,29.80,East,90,0.0,-999.0,78,-99.99,,,0.00,Acu-Link.com,2013-09-25 00:30:00,
2013-09-24 20:46:00,64.8,58.5,29.81,ENE,67,0.0,-999.0,80,-99.99,,,0.00,Acu-Link.com,2013-09-25 00:46:00,
2013-09-24 21:01:00,64.4,57.7,29.82,NNE,22,0.0,-999.0,79,-99.99,,,0.00,Acu-Link.com,2013-09-25 01:01:00,
2013-09-24 21:16:00,65.5,58.5,29.82,East,90,2.2,-999.0,78,-99.99,,,0.00,Acu-Link.com,2013-09-25 01:16:00,
2013-09-24 21:31:00,66.6,58.8,29.82,East,90,2.2,-999.0,76,-99.99,,,0.00,Acu-Link.com,2013-09-25 01:31:00,
2013-09-24 21:46:00,67.1,58.5,29.83,ENE,67,2.7,-999.0,74,-99.99,,,0.00,Acu-Link.com,2013-09-25 01:46:00,
2013-09-24 22:01:00,67.1,58.1,29.82,ESE,112,3.7,-999.0,73,-99.99,,,0.00,Acu-Link.com,2013-09-25 02:01:00,
2013-09-24 22:16:00,67.1,58.1,29.82,ESE,112,1.7,-999.0,73,-99.99,,,0.00,Acu-Link.com,2013-09-25 02:16:00,
2013-09-24 22:31:00,66.7,58.1,29.83,East,90,2.7,-999.0,74,-99.99,,,0.00,Acu-Link.com,2013-09-25 02:31:00,
2013-09-24 22:46:00,66.2,58.0,29.82,ENE,67,2.2,-999.0,75,-99.99,,,0.00,Acu-Link.com,2013-09-25 02:46:00,
2013-09-24 23:01:00,65.5,57.7,29.83,ESE,112,2.2,-999.0,76,-99.99,,,0.00,Acu-Link.com,2013-09-25 03:01:00,
2013-09-24 23:17:00,64.8,57.4,29.83,ESE,112,2.2,-999.0,77,-99.99,,,0.00,Acu-Link.com,2013-09-25 03:17:00,
2013-09-24 23:32:00,64.0,56.3,29.83,East,90,3.7,-999.0,76,-99.99,,,0.00,Acu-Link.com,2013-09-25 03:32:00,
2013-09-24 23:47:00,63.5,55.8,29.83,ENE,67,3.2,-999.0,76,-99.99,,,0.00,Acu-Link.com,2013-09-25 03:47:00,